User: anonymous   Login
Location: Knowlton
(51.2333°N, 1.2667°E)
Time: 17:47:34
(UTC+00:00)
Language:

RS-15 - Orbit

View from above orbital plane
View from above orbital plane
View from above satellite
View from above satellite

Ground track
Ground track

The orbit data is extracted from the following two-line orbital elements,

1 23439U 94085A   21340.93931355 -.00000037  00000-0  15882-3 0  9993
2 23439  64.8126  96.9870 0165263 305.3888  53.1692 11.27570448109787
Epoch (UTC): 06 December 2021 22:32:36
Eccentricity: 0.0165263
inclination: 64.8126°
perigee height: 1883 km
apogee height: 2161 km
right ascension of ascending node: 96.9870°
argument of perigee: 305.3888°
revolutions per day: 11.27570448
mean anomaly at epoch: 53.1692°
orbit number at epoch: 10978

The dashed part of the orbit path shows where the satellite is in the earth's shadow,  

DLR